Starlink 1750

operational
NORAD ID: 46337 Int'l Des: 2020-062 Owner: SPXS Country: US Constellation: starlink
LEOCIRCULAR

Über Starlink 1750

Beschreibung wird geladen...

Live-Position

3D-Globus wird geladen...

Nächste Überflüge

Höhenverlauf

Altitude vs Time

uPlot chart will show altitude changes over time

Zweizeiliger Elementsatz

1 46337U 20062N 25352.66667824 .00938807 00000-0 12039-1 0 9996
2 46337 53.0453 336.5992 0007716 6.8977 63.8893 15.56293689 5927
Epoch: 18. Dez. 2025 • Age: 10 hours

Aktueller Status

Höhe 408.1 km
Geschwindigkeit 7.67 km/s
Subsatellitenpunkt -42.36°S, 169.98°E
Startdatum 3. Sept. 2020
Alter 5.2 years
Typ internet

Technische Details

Klassifizierung Payload
Masse 260.00 kg
Trockenmasse 248.00 kg
Gesamtmasse 260.00 kg
Länge 0.20 m
Durchmesser 2.80 m
Spannweite 9.00 m
Form Box + pan
Hersteller SPXS
Bus-Typ Starlink
Phasenstatus In Orbit
Besitzer/Staat SPXS/US

Große Konstellationen

Loading constellations...